Showing default

HTV-X1, 66174

Orbit data source: Space-Track

HTV-X1, 66174 is a payload satellite owned by JAXA (JP) in LEO that was launched on Sun, 26 Oct 2025 UTC via a H3-24W launch vehicle from the Tanegashima Space Center (TNSTA). Payload-class satellites include a variety of spacecraft equipped with specific instruments for various scientific and technological missions. These include communications satellites like Starlink; space stations such as the ISS; scientific satellites like the Hubble; Earth observation satellites from companies like Planet Labs, Umbra, and HawkEye 360; GPS; miniature CubeSats for education and research; and military/defense satellites.

Loading next visibility...
Identifier
66174, 2025-241A
Orbit
LEO
Country
Flag of JPJP / JPN
Related business
Manufacturer
MHITO?
Mission
Operational spacecraft
Bus & Motor
HTV-X, HBT-5 X 4
Mass
16,000 kg wet, 7,600 kg dry
Launch date (UTC)
2025-10-26 (2 weeks ago)
Launch vehicle
H3-24W
Launch site
Tanegashima Space Center (TNSTA)
Object type
Payload
Rocket body
Debris
Shape & HBR
Unknown shape, 14.5 m
Radar Cross Section
RCS unknown

Expand to show TLE details & history
Last TLE update: 1 day ago

TLE from 1 day ago
0 HTV-X1
1 66174U 25241A   25311.19511068  .00011482  00000-0  21019-3 0  9993
2 66174  51.6334 318.4356 0005155  25.9626 334.1621 15.49813276  1450
Epoch: 2025-11-07T04:40Z
TLE epoch observation values (Epoch: 2025-11-07T04:40:57.562Z)
Latitude
Longitude
-158.4468°
Altitude
414.86 km
Speed
7.665 km/s
True Right ascension
21h 13m 44s
True Declination
0° 00' 00"
Sunlit
Object was in daylight at epoch
Visualization orbit readout
Latitude
Unknown
Longitude
Unknown
Altitude
Unknown
Speed
Unknown
Apparent Right ascension
Unknown
Apparent Declination
Unknown
Sunlit
N/A
Visualization observer readout
Local Sidereal Time
06:57:03
Azimuth
Unknown
Elevation
Unknown
Doppler factor
Unknown
Orbital elements
Apogee altitude
421.284 km
Perigee altitude
414.278 km
Semi-major axis
6,795.918 km
Eccentricity
0.00052
Inclination
51.6334°
RAAN
318.4356°
Arg. of periapsis
25.9626°
True anomaly
334.13634°
Mean anomaly
334.1621°
Eccentric anomaly
334.14922°
Mean motion
3.8741 °/min
Orbital period
92.92 mins
BSTAR
0.00021019
Loading maneuver chart data...
Computing Atmospheric mass density...
Loading historical data...
Loading historical data...
Loading historical data...
Loading historical data...
Loading historical data...
Loading historical data...
Loading historical data...
Other satellites on launch #241 in the year 2025 (2025-10-26 UTC)

Documentation

Showing up to 5 results
|